Eleja

Latvia     56˚24′52″N   23˚41′05″E
temp.,
°C
wind,
m/s
gust,
m/s
humid.,
%
clouds,
%
prec.,
mm/h
press.,
hPa
HPBL,
m
2 december, wed
wed223:00−3˚sse369389 0.0 1030205
02:00−3˚sse379394 0.0 1031229
05:00−4˚sse369450 0.0 1031184
08:00−4˚sse369256 0.0 1031244
11:00−3˚sse478546 0.0 1031309
14:00−2˚sse368237 0.0 1029380
17:00−4˚se379340 0.0 1028258
20:00−3˚se489132 0.0 1027415
3 december, thu
thu323:00−4˚se489073 0.0 1025293
02:00−4˚se389548 0.0 1024293
05:00−3˚se389674 0.0 1022339
08:00−4˚se499574 0.1 1020338
11:00−3˚sse5108971 0.0 1020554
14:00−2˚sse698484 0.1 1019753
17:00−1˚sse51186100 0.0 1017774
20:00−1˚se61383100 0.0 1016696
4 december, fri
fri423:00sse71485100 0.0 1015762
02:00+1˚se71484100 0.1 1014775
05:00+1˚se71584100 0.0 1012760
08:00+1˚se81586100 0.0 1013755
11:00+2˚sse81585100 0.0 1012771
14:00+3˚sse81587100 0.0 1012783
17:00+3˚se81685100 0.0 1012772
20:00+3˚sse81585100 0.0 1012795
5 december, sat
sat523:00+4˚sse81584100 0.0 1013792
02:00+4˚sse7178894 0.0 1013725
05:00+5˚sse81687100 0.0 1013771
08:00+5˚sse81687100 0.0 1015724
11:00+6˚sse81686100 0.0 1016771
14:00+6˚sse81583100 0.0 1017794
17:00+6˚se81583100 0.0 1017808
20:00+6˚se71484100 0.0 1018767
6 december, sun
sun623:00+5˚se71485100 0.0 1018686
02:00+5˚se71484100 0.0 1019667
05:00+5˚se71484100 0.0 1019694
08:00+5˚se71384100 0.0 1020655
11:00+5˚se71380100 0.0 1021743
14:00+5˚se71376100 0.0 1021870
17:00+4˚se8137991 0.0 1021896
20:00+2˚se8157890 0.0 1022743